Location: 相模原市立博物館
(35.5593°N, 139.3931°E)
Time: 03:22:58
(UTC+09:00)

ISS - Visible Passes

Search period start: 25 April 2018 00:00
Search period end: 05 May 2018 00:00
Orbit: 403 x 406 km, 51.6° (Epoch: 25 April)

Date Brightness Start Highest point End Pass type
(mag) Time Alt. Az. Time Alt. Az. Time Alt. Az.
30 Apr -1.7 03:52:07 10° S 03:54:38 21° SE 03:57:11 10° ENE visible
02 May -3.5 03:44:16 21° SSW 03:46:16 60° SE 03:49:29 10° NE visible
03 May -2.2 02:54:08 27° SE 02:54:08 27° SE 02:56:50 10° ENE visible
04 May -3.3 03:36:33 26° W 03:38:00 47° NW 03:41:10 10° NE visible
